Fort Polk, LA

2:21 PM CST on November 13, 2019 (GMT -0600)
Fort Polk

Weather History for KAQV - October, 2019

Change the Weather History Date:

Monday, October 21, 2019

  Actual Average (WUND) Record (WUND)
Temperature  
Mean Temperature 66 °F -  
Max Temperature 78 °F - - (-1)
Min Temperature 55 °F - - (-1)
Cooling Degree Days 1    
Growing Degree Days 16 (Base 50)    
Moisture  
Dew Point 64 °F    
Average Humidity 89    
Maximum Humidity 97    
Minimum Humidity 68    
Precipitation  
Precipitation 2.19 in - - ()
Sea Level Pressure  
Sea Level Pressure 29.81 in    
Wind  
Wind Speed 4 mph (WSW)    
Max Wind Speed 13 mph    
Max Gust Speed 24 mph    
Visibility 7 miles    
Events Fog , Rain , Thunderstorm    
Averages and records for this station are not official NWS values.
T = Trace of Precipitation, MM = Missing Value Source: NWS Daily Summary

Daily Weather History Graph

Daily Weather History Graph

Search for Another Location

Airport or City:

Astronomy

Oct. 21, 2019 Rise Set
Actual Time 7:20 AM CDT 6:34 PM CDT
Civil Twilight 6:55 AM CDT 6:59 PM CDT
Nautical Twilight 6:27 AM CDT 7:27 PM CDT
Astronomical Twilight 5:59 AM CDT 7:55 PM CDT
Moon 12:00 AM CDT (10/21) 2:26 PM CDT (10/21)
Length of Visible Light 12h 03m
Length of Day
11h 14m
Waning Gibbous, 48% of the Moon is Illuminated
Oct 21
Waning Gibbous
Oct 27
New
Nov 4
First Quarter
Nov 12
Full
Nov 19
Last Quarter

Hourly Weather History & Observations

Time (CDT) Temp. Dew Point Humidity Pressure Visibility Wind Dir Wind Speed Gust Speed Precip Events Conditions
12:58 AM 77.0 °F 72.0 °F 84% 29.74 in 10.0 mi Variable 5.8 mph - N/A   Overcast
1:58 AM 77.0 °F 72.0 °F 84% 29.72 in 10.0 mi South 8.1 mph 16.1 mph N/A   Overcast
2:58 AM 77.0 °F 72.0 °F 84% 29.72 in 10.0 mi Variable 6.9 mph 20.7 mph N/A   Overcast
3:51 AM 77.0 °F 72.0 °F 84% 29.73 in 10.0 mi South 5.8 mph 16.1 mph N/A   Overcast
3:58 AM 77.0 °F 72.0 °F 84% 29.72 in 10.0 mi South 8.1 mph - N/A   Overcast
4:41 AM 75.9 °F 72.0 °F 87% 29.73 in 10.0 mi South 8.1 mph - N/A   Mostly Cloudy
4:58 AM 75.9 °F 72.0 °F 87% 29.73 in 10.0 mi South 6.9 mph - N/A   Mostly Cloudy
5:09 AM 75.9 °F 72.0 °F 87% 29.74 in 10.0 mi Variable 4.6 mph - N/A   Mostly Cloudy
5:58 AM 75.0 °F 72.0 °F 90% 29.71 in 10.0 mi Variable 4.6 mph - 0.00 in   Mostly Cloudy
6:18 AM 75.0 °F 72.0 °F 90% 29.72 in 10.0 mi Variable 5.8 mph - N/A   Mostly Cloudy
6:44 AM 75.0 °F 72.0 °F 90% 29.74 in 10.0 mi Calm Calm - N/A   Overcast
6:58 AM 75.0 °F 72.0 °F 90% 29.73 in 10.0 mi Calm Calm - N/A Thunderstorm Thunderstorm
7:15 AM 73.0 °F 72.0 °F 96% 29.75 in 1.5 mi NW 12.7 mph 24.2 mph 0.16 in Rain , Thunderstorm Heavy Thunderstorms and Rain
7:21 AM 66.9 °F 64.9 °F 93% 29.79 in 0.5 mi West 11.5 mph 24.2 mph 0.51 in Fog , Rain , Thunderstorm Heavy Thunderstorms and Rain
7:27 AM 66.0 °F 64.0 °F 93% 29.77 in 0.5 mi NNW 8.1 mph 21.9 mph 0.75 in Fog , Rain , Thunderstorm Heavy Thunderstorms and Rain
7:46 AM 64.9 °F 63.0 °F 93% 29.80 in 0.8 mi North - - 1.18 in Rain , Thunderstorm Heavy Thunderstorms and Rain
7:48 AM 64.9 °F 63.0 °F 93% 29.81 in 1.0 mi North - - 1.20 in Rain , Thunderstorm Heavy Thunderstorms and Rain
7:58 AM 64.0 °F 63.0 °F 96% 29.81 in 1.5 mi Variable 3.5 mph - 1.31 in Rain , Thunderstorm Heavy Thunderstorms and Rain
8:07 AM 64.0 °F 62.1 °F 93% 29.79 in 2.5 mi Variable 4.6 mph - 0.04 in Rain , Thunderstorm Heavy Thunderstorms and Rain
8:14 AM 64.0 °F 62.1 °F 93% 29.78 in 3.0 mi Variable 3.5 mph - 0.07 in Rain , Thunderstorm Heavy Thunderstorms and Rain
8:32 AM 64.0 °F 62.1 °F 93% 29.81 in 2.5 mi Calm Calm - 0.13 in Rain , Thunderstorm Heavy Thunderstorms and Rain
8:49 AM 64.0 °F 62.1 °F 93% 29.83 in 3.0 mi Calm Calm - 0.22 in Rain , Thunderstorm Heavy Thunderstorms and Rain
8:56 AM 64.4 °F 62.6 °F 94% 29.84 in 2.5 mi Calm Calm - 0.25 in Rain Heavy Rain
8:58 AM 64.0 °F 62.1 °F 93% 29.83 in 2.0 mi Calm Calm - 0.26 in Rain Heavy Rain
9:18 AM 64.0 °F 62.1 °F 93% 29.85 in 4.0 mi Calm Calm - 0.11 in Rain Heavy Rain
9:58 AM 63.0 °F 62.1 °F 97% 29.84 in 2.5 mi ENE 3.5 mph - 0.30 in Rain Heavy Rain
10:08 AM 63.0 °F 61.0 °F 93% 29.83 in 3.0 mi North 4.6 mph - 0.04 in Rain Heavy Rain
10:18 AM 63.0 °F 61.0 °F 93% 29.83 in 2.5 mi ENE 3.5 mph - 0.09 in Rain Heavy Rain
10:27 AM 63.0 °F 61.0 °F 93% 29.82 in 3.0 mi Calm Calm - 0.12 in Rain Rain
10:48 AM 63.0 °F 61.0 °F 93% 29.84 in 2.5 mi Calm Calm - 0.21 in Rain Rain
10:55 AM 62.6 °F 60.8 °F 94% 29.84 in 4.0 mi Calm Calm - 0.22 in Rain Rain
10:58 AM 63.0 °F 61.0 °F 93% 29.83 in 5.0 mi Calm Calm - 0.23 in Rain Rain
11:32 AM 63.0 °F 61.0 °F 93% 29.84 in 2.5 mi Calm Calm - 0.07 in Rain Rain
11:40 AM 62.1 °F 60.1 °F 93% 29.85 in 4.0 mi Calm Calm - 0.08 in Rain Rain
11:56 AM 62.6 °F 60.8 °F 94% 29.85 in 10.0 mi Calm Calm - 0.09 in Rain Light Rain
11:58 AM 63.0 °F 61.0 °F 93% 29.85 in 10.0 mi Calm Calm - 0.09 in Rain Light Rain
12:07 PM 63.0 °F 61.0 °F 93% 29.85 in 10.0 mi Calm Calm - 0.00 in Rain Light Rain
12:58 PM 66.0 °F 61.0 °F 84% 29.83 in 10.0 mi Variable 3.5 mph - 0.00 in   Mostly Cloudy
1:58 PM 68.0 °F 60.1 °F 76% 29.81 in 10.0 mi Variable 5.8 mph - N/A   Partly Cloudy
2:12 PM 68.0 °F 60.1 °F 76% 29.82 in 10.0 mi Variable 3.5 mph - N/A   Mostly Cloudy
2:58 PM 70.0 °F 60.1 °F 71% 29.81 in 10.0 mi Variable 5.8 mph - N/A   Overcast
4:58 PM 72.0 °F 61.0 °F 68% 29.80 in 10.0 mi North 5.8 mph - N/A   Mostly Cloudy
5:09 PM 71.1 °F 61.0 °F 70% 29.81 in 10.0 mi Calm Calm - N/A   Scattered Clouds
6:58 PM 66.0 °F 63.0 °F 90% 29.86 in 10.0 mi Calm Calm - N/A   Clear
7:58 PM 64.0 °F 61.0 °F 90% 29.91 in 10.0 mi Calm Calm - N/A   Clear
8:58 PM 60.1 °F 55.9 °F 86% 29.94 in 10.0 mi Calm Calm - N/A   Clear
9:58 PM 57.0 °F 54.0 °F 89% 29.98 in 10.0 mi Calm Calm - N/A   Clear
10:58 PM 55.9 °F 53.1 °F 90% 30.00 in 10.0 mi Calm Calm - N/A   Clear
11:58 PM 55.0 °F 50.0 °F 83% 30.01 in 10.0 mi Variable 3.5 mph - N/A   Clear